QPF
0.01 0.01 0.01 0.01 0.02 0.01 0.01 0.00 0.00 0.00 0.00 0.00 0.00 0.00 0.01 0.02 0.03 0.03 0.02 0.02 0.02 0.02 0.02 0.02 0.01 0.01 0.01 0.02 0.02 0.02 0.04 0.06 0.04 0.03 0.04 0.03 0.03 0.02 0.02 0.02 0.02 0.02 0.02 0.02
0.01 0.01 0.01 0.01 0.02 0.01 0.00 0.00 0.00 0.01 0.00 0.00 0.00 0.00 0.01 0.01 0.01 0.01 0.02 0.03 0.02 0.02 0.02 0.02 0.02 0.01 0.01 0.01 0.01 0.01 0.02 0.03 0.03 0.03 0.04 0.05 0.04 0.03 0.02 0.02 0.02 0.03 0.03 0.02
0.01 0.01 0.01 0.02 0.02 0.01 0.01 0.00 0.00 0.01 0.01 0.01 0.01 0.00 0.01 0.00 0.00 0.00 0.00 0.01 0.01 0.01 0.02 0.01 0.01 0.01 0.02 0.02 0.01 0.02 0.03 0.02 0.02 0.01 0.02 0.03 0.05 0.06 0.05 0.05 0.04 0.03 0.02 0.02
0.01 0.00 0.01 0.03 0.02 0.01 0.01 0.00 0.00 0.00 0.01 0.01 0.00 0.00 0.01 0.01 0.01 0.01 0.00 0.00 0.00 0.01 0.01 0.02 0.01 0.01 0.01 0.01 0.01 0.02 0.02 0.03 0.02 0.01 0.01 0.01 0.04 0.06 0.06 0.06 0.05 0.04 0.02 0.02
0.00 0.00 0.01 0.03 0.01 0.01 0.01 0.00 0.00 0.01 0.01 0.01 0.00 0.01 0.00 0.01 0.01 0.01 0.01 0.00 0.00 0.00 0.00 0.01 0.01 0.01 0.01 0.01 0.01 0.01 0.02 0.02 0.01 0.01 0.01 0.02 0.03 0.05 0.05 0.03 0.02 0.02 0.02 0.02
0.00 0.00 0.01 0.01 0.01 0.00 0.00 0.00 0.00 0.00 0.01 0.01 0.01 0.01 0.01 0.01 0.00 0.01 0.00 0.00 0.00 0.00 0.00 0.00 0.01 0.01 0.01 0.01 0.01 0.01 0.01 0.01 0.01 0.01 0.02 0.03 0.04 0.04 0.02 0.01 0.01 0.00 0.00 0.00
0.01 0.00 0.01 0.01 0.01 0.00 0.00 0.00 0.01 0.01 0.01 0.01 0.00 0.01 0.01 0.01 0.00 0.00 0.00 0.00 0.00 0.00 0.00 0.00 0.01 0.01 0.00 0.00 0.00 0.00 0.01 0.01 0.02 0.02 0.03 0.03 0.01 0.01 0.00 0.00 0.01 0.01 0.01 0.00
0.00 0.00 0.01 0.00 0.00 0.00 0.00 0.00 0.01 0.01 0.00 0.01 0.01 0.01 0.01 0.01 0.00 0.00 0.00 0.00 0.00 0.00 0.00 0.00 0.00 0.00 0.00 0.00 0.00 0.00 0.00 0.01 0.02 0.02 0.02 0.01 0.00 0.00 0.00 0.00 0.00 0.01 0.01 0.00
0.00 0.00 0.00 0.00 0.00 0.01 0.01 0.01 0.01 0.01 0.01 0.01 0.01 0.01 0.01 0.01 0.00 0.00 0.00 0.00 0.00 0.00 0.00 0.00 0.00 0.00 0.00 0.00 0.00 0.00 0.00 0.00 0.01 0.01 0.01 0.01 0.01 0.01 0.00 0.00 0.01 0.00 0.00 0.00
0.00 0.00 0.00 0.00 0.00 0.01 0.01 0.01 0.01 0.01 0.01 0.01 0.00 0.01 0.02 0.01 0.01 0.01 0.01 0.01 0.00 0.00 0.00 0.00 0.00 0.00 0.00 0.00 0.00 0.00 0.00 0.00 0.01 0.01 0.01 0.01 0.01 0.01 0.01 0.01 0.00 0.00 0.00 0.00
0.01 0.01 0.01 0.01 0.00 0.00 0.00 0.01 0.01 0.01 0.01 0.01 0.01 0.01 0.01 0.01 0.01 0.01 0.01 0.01 0.00 0.00 0.00 0.00 0.00 0.00 0.00 0.00 0.00 0.00 0.00 0.00 0.01 0.01 0.01 0.01 0.01 0.01 0.01 0.01 0.00 0.00 0.00 0.00
0.01 0.01 0.01 0.01 0.01 0.01 0.01 0.01 0.01 0.01 0.01 0.02 0.02 0.02 0.01 0.01 0.01 0.01 0.01 0.01 0.00 0.00 0.00 0.00 0.00 0.00 0.00 0.00 0.00 0.00 0.00 0.00 0.00 0.01 0.01 0.01 0.01 0.01 0.01 0.01 0.00 0.00 0.00 0.01
0.02 0.02 0.02 0.02 0.02 0.02 0.01 0.01 0.01 0.01 0.01 0.00 0.01 0.02 0.02 0.01 0.01 0.02 0.02 0.01 0.00 0.00 0.00 0.00 0.00 0.00 0.00 0.00 0.00 0.01 0.01 0.01 0.01 0.01 0.01 0.01 0.01 0.01 0.01 0.01 0.01 0.00 0.00 0.01
0.02 0.02 0.02 0.02 0.02 0.02 0.02 0.01 0.02 0.02 0.02 0.01 0.01 0.02 0.02 0.02 0.02 0.01 0.02 0.02 0.01 0.01 0.00 0.00 0.00 0.00 0.00 0.00 0.00 0.00 0.01 0.01 0.01 0.02 0.02 0.02 0.02 0.01 0.02 0.01 0.01 0.01 0.01 0.01
0.02 0.02 0.01 0.01 0.01 0.02 0.02 0.02 0.01 0.01 0.02 0.02 0.01 0.02 0.02 0.01 0.01 0.01 0.00 0.01 0.01 0.00 0.00 0.01 0.00 0.00 0.00 0.00 0.00 0.00 0.01 0.01 0.01 0.01 0.02 0.02 0.01 0.01 0.02 0.02 0.01 0.01 0.01 0.02
0.02 0.02 0.01 0.01 0.01 0.01 0.02 0.01 0.01 0.01 0.01 0.02 0.02 0.01 0.01 0.01 0.01 0.01 0.01 0.00 0.00 0.00 0.00 0.00 0.00 0.00 0.00 0.00 0.00 0.00 0.00 0.00 0.01 0.01 0.01 0.02 0.02 0.02 0.02 0.01 0.01 0.01 0.02 0.02
0.01 0.01 0.01 0.01 0.01 0.01 0.03 0.02 0.01 0.02 0.01 0.01 0.01 0.02 0.01 0.02 0.02 0.02 0.02 0.02 0.01 0.00 0.00 0.00 0.00 0.00 0.00 0.00 0.00 0.00 0.00 0.00 0.01 0.01 0.01 0.01 0.01 0.01 0.01 0.01 0.01 0.01 0.01 0.01
0.01 0.01 0.02 0.02 0.01 0.02 0.02 0.02 0.01 0.01 0.02 0.02 0.03 0.02 0.02 0.02 0.03 0.02 0.02 0.01 0.01 0.00 0.00 0.00 0.00 0.00 0.00 0.00 0.00 0.00 0.00 0.00 0.00 0.00 0.01 0.01 0.01 0.00 0.00 0.00 0.00 0.00 0.00 0.01
0.01 0.02 0.03 0.02 0.02 0.01 0.01 0.01 0.01 0.02 0.02 0.03 0.05 0.04 0.03 0.01 0.01 0.01 0.01 0.00 0.01 0.00 0.00 0.00 0.00 0.00 0.00 0.00 0.00 0.00 0.00 0.00 0.00 0.01 0.01 0.00 0.01 0.01 0.01 0.00 0.00 0.00 0.01 0.01
0.02 0.02 0.04 0.04 0.03 0.02 0.01 0.00 0.01 0.01 0.02 0.01 0.02 0.03 0.02 0.01 0.00 0.00 0.00 0.01 0.01 0.00 0.00 0.00 0.00 0.00 0.00 0.00 0.00 0.00 0.00 0.00 0.00 0.01 0.01 0.01 0.00 0.01 0.01 0.00 0.01 0.01 0.01 0.01
0.02 0.03 0.03 0.02 0.02 0.01 0.00 0.01 0.01 0.02 0.02 0.00 0.00 0.00 0.00 0.00 0.00 0.00 0.00 0.00 0.01 0.01 0.00 0.00 0.00 0.00 0.00 0.00 0.00 0.00 0.00 0.00 0.01 0.00 0.01 0.01 0.01 0.01 0.01 0.01 0.01 0.01 0.01 0.01
0.02 0.04 0.04 0.02 0.02 0.01 0.00 0.01 0.01 0.01 0.01 0.01 0.00 0.00 0.00 0.00 0.00 0.00 0.00 0.00 0.00 0.00 0.00 0.00 0.00 0.00 0.00 0.00 0.00 0.00 0.00 0.01 0.01 0.00 0.00 0.00 0.01 0.01 0.01 0.01 0.01 0.01 0.02 0.02
0.02 0.03 0.03 0.02 0.01 0.00 0.00 0.01 0.01 0.01 0.01 0.01 0.01 0.00 0.00 0.00 0.00 0.00 0.00 0.00 0.00 0.00 0.00 0.00 0.00 0.00 0.00 0.00 0.00 0.00 0.00 0.00 0.00 0.00 0.00 0.00 0.00 0.00 0.01 0.02 0.01 0.01 0.01 0.01
0.01 0.02 0.03 0.03 0.01 0.00 0.01 0.01 0.01 0.01 0.01 0.01 0.01 0.01 0.00 0.01 0.01 0.01 0.00 0.00 0.00 0.00 0.00 0.00 0.00 0.00 0.00 0.00 0.00 0.00 0.00 0.00 0.00 0.01 0.01 0.01 0.00 0.00 0.01 0.01 0.02 0.02 0.01 0.01
0.01 0.02 0.03 0.02 0.01 0.01 0.01 0.01 0.01 0.01 0.01 0.01 0.02 0.01 0.00 0.01 0.01 0.01 0.01 0.00 0.00 0.00 0.00 0.00 0.00 0.00 0.00 0.00 0.00 0.00 0.00 0.01 0.01 0.01 0.01 0.01 0.01 0.00 0.01 0.01 0.01 0.01 0.01 0.01
0.01 0.01 0.02 0.02 0.02 0.01 0.01 0.01 0.01 0.01 0.01 0.01 0.02 0.01 0.00 0.00 0.01 0.01 0.01 0.00 0.00 0.00 0.01 0.00 0.00 0.00 0.00 0.00 0.01 0.01 0.00 0.01 0.01 0.01 0.01 0.01 0.01 0.01 0.01 0.01 0.02 0.02 0.01 0.01
MSLP
1016.14 1017.07 1017.94 1018.73 1019.40 1019.95 1020.38 1020.72 1020.98 1021.22 1021.45 1021.68 1021.93 1022.19 1022.45 1022.69 1022.90 1023.08 1023.22 1023.33 1023.42 1023.50 1023.57 1023.64 1023.69 1023.71 1023.69 1023.61 1023.48 1023.29 1023.05 1022.80 1022.55 1022.33 1022.16 1022.02 1021.90 1021.79 1021.65 1021.45 1021.17 1020.82 1020.41 1019.94
1016.76 1017.62 1018.41 1019.10 1019.66 1020.12 1020.48 1020.76 1020.99 1021.19 1021.38 1021.57 1021.75 1021.92 1022.09 1022.24 1022.38 1022.52 1022.65 1022.80 1022.96 1023.12 1023.29 1023.45 1023.57 1023.65 1023.65 1023.58 1023.45 1023.26 1023.05 1022.84 1022.65 1022.49 1022.39 1022.31 1022.24 1022.15 1022.00 1021.78 1021.49 1021.12 1020.69 1020.24
1017.27 1018.07 1018.77 1019.37 1019.85 1020.23 1020.54 1020.78 1020.99 1021.16 1021.32 1021.44 1021.54 1021.61 1021.66 1021.70 1021.75 1021.82 1021.93 1022.10 1022.31 1022.56 1022.83 1023.08 1023.29 1023.42 1023.47 1023.43 1023.33 1023.17 1023.01 1022.85 1022.73 1022.65 1022.60 1022.57 1022.53 1022.44 1022.28 1022.03 1021.70 1021.30 1020.86 1020.41
1017.66 1018.39 1019.01 1019.53 1019.94 1020.28 1020.55 1020.78 1020.98 1021.13 1021.25 1021.31 1021.32 1021.27 1021.19 1021.10 1021.03 1021.02 1021.10 1021.27 1021.53 1021.86 1022.22 1022.56 1022.86 1023.08 1023.19 1023.22 1023.17 1023.07 1022.97 1022.88 1022.83 1022.82 1022.83 1022.83 1022.80 1022.69 1022.50 1022.21 1021.84 1021.41 1020.96 1020.52
1017.94 1018.58 1019.13 1019.58 1019.94 1020.25 1020.52 1020.75 1020.95 1021.10 1021.18 1021.18 1021.09 1020.92 1020.70 1020.47 1020.28 1020.19 1020.21 1020.38 1020.67 1021.07 1021.52 1021.97 1022.37 1022.68 1022.89 1022.99 1023.02 1023.00 1022.97 1022.96 1022.97 1023.02 1023.06 1023.08 1023.04 1022.91 1022.68 1022.35 1021.95 1021.49 1021.03 1020.59
1018.10 1018.66 1019.13 1019.53 1019.86 1020.15 1020.43 1020.69 1020.90 1021.05 1021.11 1021.05 1020.87 1020.58 1020.23 1019.86 1019.55 1019.36 1019.33 1019.49 1019.81 1020.27 1020.82 1021.37 1021.88 1022.30 1022.61 1022.81 1022.92 1022.98 1023.02 1023.07 1023.14 1023.22 1023.29 1023.31 1023.25 1023.09 1022.82 1022.46 1022.03 1021.56 1021.10 1020.66
1018.17 1018.65 1019.05 1019.40 1019.70 1020.00 1020.30 1020.58 1020.82 1020.99 1021.03 1020.92 1020.66 1020.26 1019.78 1019.29 1018.88 1018.60 1018.53 1018.67 1019.03 1019.55 1020.18 1020.84 1021.45 1021.98 1022.39 1022.68 1022.87 1023.01 1023.11 1023.21 1023.31 1023.41 1023.47 1023.48 1023.40 1023.22 1022.93 1022.54 1022.09 1021.62 1021.17 1020.74
1018.16 1018.56 1018.90 1019.21 1019.51 1019.81 1020.13 1020.45 1020.72 1020.89 1020.92 1020.77 1020.44 1019.96 1019.38 1018.80 1018.29 1017.95 1017.85 1017.99 1018.37 1018.95 1019.66 1020.41 1021.12 1021.74 1022.24 1022.61 1022.88 1023.06 1023.21 1023.33 1023.45 1023.54 1023.60 1023.59 1023.49 1023.28 1022.97 1022.58 1022.14 1021.68 1021.24 1020.83
1018.07 1018.42 1018.71 1018.99 1019.28 1019.60 1019.94 1020.29 1020.58 1020.76 1020.78 1020.60 1020.22 1019.67 1019.02 1018.37 1017.81 1017.43 1017.30 1017.46 1017.87 1018.51 1019.28 1020.11 1020.90 1021.60 1022.17 1022.60 1022.91 1023.13 1023.29 1023.42 1023.53 1023.61 1023.65 1023.62 1023.50 1023.28 1022.97 1022.58 1022.16 1021.72 1021.29 1020.90
1017.92 1018.22 1018.49 1018.75 1019.04 1019.37 1019.74 1020.10 1020.40 1020.58 1020.58 1020.37 1019.96 1019.37 1018.68 1017.99 1017.41 1017.02 1016.90 1017.08 1017.53 1018.21 1019.04 1019.92 1020.77 1021.52 1022.14 1022.61 1022.94 1023.17 1023.33 1023.45 1023.55 1023.61 1023.63 1023.58 1023.45 1023.23 1022.92 1022.55 1022.14 1021.73 1021.33 1020.95
1017.71 1017.99 1018.24 1018.50 1018.80 1019.14 1019.51 1019.86 1020.16 1020.32 1020.30 1020.07 1019.63 1019.03 1018.33 1017.65 1017.07 1016.71 1016.62 1016.82 1017.32 1018.03 1018.90 1019.82 1020.71 1021.49 1022.12 1022.61 1022.95 1023.18 1023.33 1023.44 1023.51 1023.55 1023.55 1023.49 1023.36 1023.13 1022.84 1022.48 1022.09 1021.69 1021.31 1020.94
1017.46 1017.74 1018.00 1018.27 1018.56 1018.90 1019.25 1019.58 1019.84 1019.97 1019.92 1019.66 1019.21 1018.61 1017.93 1017.28 1016.75 1016.44 1016.40 1016.65 1017.18 1017.93 1018.82 1019.76 1020.66 1021.45 1022.09 1022.58 1022.92 1023.15 1023.29 1023.39 1023.44 1023.47 1023.45 1023.39 1023.25 1023.03 1022.74 1022.39 1022.01 1021.62 1021.23 1020.85
1017.21 1017.50 1017.77 1018.05 1018.34 1018.65 1018.95 1019.23 1019.43 1019.50 1019.40 1019.12 1018.67 1018.09 1017.46 1016.87 1016.41 1016.17 1016.20 1016.51 1017.08 1017.85 1018.76 1019.70 1020.59 1021.38 1022.02 1022.50 1022.85 1023.07 1023.21 1023.30 1023.35 1023.37 1023.35 1023.28 1023.14 1022.92 1022.63 1022.28 1021.89 1021.48 1021.08 1020.68
1017.01 1017.32 1017.60 1017.86 1018.12 1018.38 1018.62 1018.81 1018.92 1018.91 1018.75 1018.44 1017.99 1017.46 1016.89 1016.39 1016.04 1015.89 1016.00 1016.37 1016.98 1017.78 1018.68 1019.61 1020.49 1021.26 1021.89 1022.37 1022.72 1022.95 1023.10 1023.20 1023.25 1023.27 1023.25 1023.17 1023.02 1022.80 1022.49 1022.13 1021.72 1021.28 1020.85 1020.41
1016.87 1017.20 1017.48 1017.72 1017.93 1018.10 1018.24 1018.32 1018.31 1018.20 1017.98 1017.64 1017.21 1016.72 1016.25 1015.86 1015.63 1015.60 1015.80 1016.23 1016.88 1017.68 1018.58 1019.48 1020.34 1021.09 1021.71 1022.19 1022.54 1022.79 1022.95 1023.06 1023.13 1023.16 1023.13 1023.05 1022.89 1022.65 1022.32 1021.93 1021.48 1021.01 1020.53 1020.06
1016.83 1017.17 1017.43 1017.62 1017.75 1017.81 1017.81 1017.75 1017.61 1017.40 1017.10 1016.74 1016.33 1015.92 1015.56 1015.30 1015.20 1015.29 1015.59 1016.09 1016.77 1017.58 1018.45 1019.33 1020.15 1020.87 1021.47 1021.95 1022.31 1022.58 1022.76 1022.89 1022.97 1023.00 1022.98 1022.88 1022.70 1022.44 1022.09 1021.66 1021.18 1020.67 1020.15 1019.64
1016.88 1017.20 1017.42 1017.53 1017.55 1017.49 1017.34 1017.12 1016.85 1016.52 1016.16 1015.79 1015.42 1015.10 1014.87 1014.75 1014.79 1015.01 1015.41 1015.97 1016.68 1017.47 1018.32 1019.15 1019.92 1020.61 1021.20 1021.67 1022.04 1022.32 1022.52 1022.67 1022.76 1022.79 1022.75 1022.64 1022.44 1022.15 1021.77 1021.32 1020.81 1020.27 1019.72 1019.18
1016.94 1017.23 1017.39 1017.41 1017.31 1017.10 1016.80 1016.43 1016.02 1015.61 1015.20 1014.83 1014.53 1014.31 1014.21 1014.25 1014.43 1014.77 1015.26 1015.88 1016.60 1017.38 1018.18 1018.96 1019.69 1020.34 1020.89 1021.35 1021.73 1022.01 1022.23 1022.38 1022.47 1022.50 1022.44 1022.31 1022.09 1021.77 1021.37 1020.90 1020.38 1019.83 1019.27 1018.72
1016.94 1017.19 1017.27 1017.20 1016.97 1016.62 1016.17 1015.68 1015.17 1014.68 1014.25 1013.91 1013.69 1013.58 1013.62 1013.81 1014.14 1014.60 1015.17 1015.83 1016.55 1017.31 1018.06 1018.78 1019.45 1020.06 1020.58 1021.02 1021.38 1021.67 1021.89 1022.04 1022.12 1022.13 1022.05 1021.89 1021.65 1021.32 1020.91 1020.45 1019.93 1019.39 1018.85 1018.30
1016.77 1016.97 1016.98 1016.81 1016.47 1016.01 1015.45 1014.86 1014.28 1013.76 1013.34 1013.06 1012.92 1012.94 1013.12 1013.45 1013.90 1014.46 1015.10 1015.80 1016.52 1017.24 1017.94 1018.61 1019.22 1019.77 1020.26 1020.68 1021.03 1021.31 1021.52 1021.66 1021.72 1021.70 1021.60 1021.42 1021.16 1020.82 1020.42 1019.97 1019.49 1018.98 1018.47 1017.96
1016.35 1016.48 1016.43 1016.19 1015.78 1015.24 1014.62 1013.98 1013.38 1012.87 1012.50 1012.29 1012.25 1012.39 1012.70 1013.15 1013.71 1014.36 1015.05 1015.76 1016.47 1017.16 1017.81 1018.42 1018.99 1019.49 1019.95 1020.34 1020.68 1020.94 1021.14 1021.25 1021.29 1021.25 1021.12 1020.92 1020.64 1020.31 1019.93 1019.51 1019.08 1018.63 1018.17 1017.71
1015.61 1015.70 1015.60 1015.32 1014.87 1014.31 1013.68 1013.05 1012.48 1012.02 1011.72 1011.60 1011.67 1011.92 1012.34 1012.89 1013.54 1014.24 1014.97 1015.69 1016.38 1017.04 1017.66 1018.22 1018.74 1019.22 1019.64 1020.02 1020.33 1020.58 1020.76 1020.85 1020.86 1020.79 1020.64 1020.42 1020.14 1019.81 1019.46 1019.09 1018.71 1018.33 1017.93 1017.53
1014.57 1014.62 1014.49 1014.20 1013.77 1013.24 1012.65 1012.09 1011.59 1011.22 1011.01 1011.00 1011.17 1011.52 1012.03 1012.66 1013.36 1014.10 1014.85 1015.56 1016.24 1016.88 1017.46 1017.99 1018.49 1018.94 1019.34 1019.70 1020.01 1020.24 1020.39 1020.46 1020.45 1020.35 1020.17 1019.93 1019.65 1019.34 1019.02 1018.70 1018.38 1018.06 1017.73 1017.39
1013.27 1013.29 1013.17 1012.90 1012.53 1012.07 1011.59 1011.13 1010.75 1010.49 1010.40 1010.49 1010.75 1011.19 1011.76 1012.44 1013.17 1013.93 1014.67 1015.38 1016.05 1016.66 1017.22 1017.74 1018.22 1018.65 1019.05 1019.40 1019.69 1019.90 1020.04 1020.08 1020.04 1019.91 1019.71 1019.46 1019.18 1018.89 1018.59 1018.31 1018.05 1017.79 1017.52 1017.23
1011.84 1011.83 1011.72 1011.52 1011.23 1010.89 1010.54 1010.22 1009.98 1009.86 1009.89 1010.08 1010.43 1010.92 1011.53 1012.23 1012.97 1013.72 1014.46 1015.16 1015.81 1016.41 1016.96 1017.47 1017.94 1018.37 1018.76 1019.09 1019.37 1019.56 1019.67 1019.68 1019.61 1019.45 1019.24 1018.97 1018.69 1018.41 1018.14 1017.89 1017.67 1017.46 1017.25 1017.01
1010.37 1010.35 1010.27 1010.13 1009.96 1009.76 1009.57 1009.42 1009.33 1009.36 1009.50 1009.78 1010.19 1010.73 1011.35 1012.05 1012.79 1013.52 1014.24 1014.93 1015.57 1016.16 1016.71 1017.21 1017.67 1018.10 1018.47 1018.78 1019.03 1019.20 1019.27 1019.25 1019.14 1018.95 1018.71 1018.44 1018.15 1017.87 1017.62 1017.40 1017.22 1017.05 1016.87 1016.68
Thickness
5733 5728 5722 5725 5728 5726 5725 5721 5718 5721 5728 5725 5723 5724 5729 5732 5730 5729 5729 5729 5728 5726 5727 5726 5724 5721 5720 5719 5717 5715 5713 5710 5708 5704 5702 5699 5698 5697 5696 5694 5693 5692 5691 5691
5722 5718 5724 5727 5725 5722 5720 5716 5716 5720 5725 5723 5721 5723 5730 5730 5728 5729 5729 5729 5728 5726 5724 5723 5721 5719 5718 5716 5714 5714 5711 5708 5706 5702 5700 5698 5696 5694 5693 5690 5689 5688 5687 5686
5715 5719 5723 5719 5716 5714 5715 5714 5714 5713 5718 5722 5717 5718 5725 5728 5728 5727 5728 5729 5729 5726 5723 5722 5720 5718 5716 5714 5712 5711 5709 5707 5703 5700 5697 5694 5691 5690 5688 5686 5685 5684 5683 5682
5713 5718 5716 5713 5713 5714 5708 5716 5713 5710 5708 5709 5710 5705 5721 5726 5724 5724 5725 5726 5726 5725 5723 5720 5718 5716 5714 5713 5711 5709 5707 5704 5701 5698 5694 5691 5688 5686 5685 5684 5682 5680 5679 5678
5710 5712 5710 5707 5711 5713 5711 5714 5711 5708 5706 5704 5709 5704 5717 5724 5719 5723 5725 5725 5724 5723 5721 5718 5716 5715 5713 5711 5708 5706 5704 5700 5697 5695 5691 5688 5686 5685 5683 5681 5679 5678 5676 5675
5710 5714 5713 5711 5713 5713 5711 5707 5705 5705 5703 5692 5703 5701 5706 5719 5720 5722 5723 5723 5722 5721 5719 5716 5715 5712 5710 5708 5704 5702 5699 5696 5693 5691 5688 5685 5683 5681 5679 5677 5676 5674 5673 5671
5699 5704 5709 5711 5704 5705 5705 5697 5687 5685 5687 5691 5702 5699 5706 5719 5722 5720 5719 5719 5720 5719 5717 5713 5710 5708 5706 5703 5700 5698 5695 5692 5690 5687 5686 5684 5681 5679 5676 5674 5673 5671 5670 5667
5688 5689 5700 5704 5703 5701 5701 5698 5685 5678 5682 5691 5696 5696 5710 5717 5719 5719 5718 5717 5716 5714 5713 5710 5708 5705 5702 5700 5697 5695 5692 5689 5687 5685 5683 5681 5679 5676 5674 5672 5671 5669 5667 5666
5686 5686 5696 5699 5703 5702 5695 5694 5699 5691 5689 5684 5693 5701 5707 5713 5712 5712 5711 5710 5709 5709 5707 5706 5704 5702 5700 5697 5694 5692 5689 5686 5684 5682 5680 5678 5675 5672 5670 5669 5667 5665 5664 5662
5688 5679 5688 5692 5696 5694 5698 5696 5689 5683 5674 5675 5685 5692 5698 5701 5703 5705 5705 5704 5704 5703 5703 5702 5700 5698 5696 5694 5691 5689 5686 5683 5681 5678 5676 5673 5671 5668 5666 5665 5663 5661 5660 5658
5683 5676 5678 5683 5683 5685 5685 5684 5684 5684 5683 5673 5674 5689 5706 5703 5701 5700 5701 5700 5699 5697 5697 5696 5695 5693 5691 5689 5687 5684 5682 5679 5677 5674 5672 5669 5666 5664 5662 5660 5659 5657 5655 5654
5676 5675 5671 5678 5685 5687 5686 5685 5682 5673 5674 5676 5675 5685 5704 5701 5700 5697 5696 5696 5694 5692 5691 5690 5688 5687 5685 5683 5681 5679 5677 5675 5672 5670 5667 5665 5662 5660 5658 5656 5655 5653 5651 5650
5667 5667 5660 5664 5670 5675 5676 5678 5678 5677 5675 5674 5671 5681 5697 5696 5694 5692 5691 5690 5688 5686 5685 5684 5682 5681 5679 5677 5676 5674 5672 5670 5668 5665 5662 5660 5658 5656 5654 5652 5651 5649 5647 5645
5663 5663 5661 5658 5665 5668 5667 5668 5670 5669 5666 5669 5677 5681 5686 5686 5685 5684 5684 5684 5682 5681 5679 5677 5675 5675 5673 5672 5670 5669 5667 5665 5663 5660 5657 5654 5653 5651 5649 5648 5646 5644 5643 5641
5658 5656 5659 5661 5662 5661 5661 5663 5664 5665 5668 5666 5674 5675 5680 5682 5680 5679 5678 5676 5674 5673 5673 5671 5670 5669 5668 5666 5665 5664 5661 5660 5657 5655 5652 5650 5648 5646 5644 5642 5640 5638 5637 5636
5651 5648 5651 5651 5654 5654 5652 5657 5660 5661 5663 5665 5666 5668 5677 5677 5676 5674 5673 5670 5668 5667 5667 5666 5666 5664 5663 5662 5660 5658 5656 5654 5653 5650 5647 5645 5642 5640 5638 5636 5634 5632 5630 5629
5642 5641 5640 5644 5648 5647 5646 5657 5658 5659 5663 5662 5660 5665 5668 5667 5667 5667 5667 5665 5663 5663 5662 5661 5661 5660 5658 5657 5656 5653 5651 5649 5647 5645 5642 5639 5637 5634 5632 5630 5628 5626 5624 5622
5637 5635 5635 5636 5636 5629 5653 5659 5659 5656 5658 5660 5659 5660 5661 5661 5662 5663 5662 5660 5659 5658 5657 5656 5656 5654 5653 5651 5649 5647 5644 5642 5640 5639 5636 5634 5631 5628 5626 5624 5621 5620 5619 5616
5635 5630 5627 5628 5628 5636 5647 5650 5650 5648 5648 5655 5654 5654 5655 5655 5655 5658 5657 5655 5654 5653 5652 5651 5650 5648 5647 5645 5642 5640 5637 5636 5634 5632 5630 5628 5625 5623 5620 5618 5615 5614 5612 5610
5626 5626 5623 5621 5620 5626 5642 5647 5647 5644 5640 5651 5651 5649 5648 5648 5645 5651 5651 5648 5646 5645 5644 5643 5642 5641 5639 5637 5635 5633 5631 5629 5627 5625 5623 5621 5619 5617 5614 5612 5610 5608 5606 5603
5616 5616 5617 5620 5619 5629 5640 5640 5639 5629 5638 5643 5643 5643 5643 5643 5645 5645 5644 5641 5639 5637 5635 5634 5633 5632 5630 5629 5627 5625 5623 5621 5619 5617 5616 5614 5612 5610 5608 5606 5604 5602 5600 5597
5616 5612 5613 5614 5612 5620 5631 5629 5630 5634 5638 5637 5636 5636 5635 5636 5637 5636 5634 5632 5630 5629 5627 5626 5625 5623 5622 5621 5619 5617 5615 5613 5611 5609 5608 5606 5605 5603 5601 5599 5597 5595 5592 5590
5612 5615 5616 5616 5618 5623 5624 5624 5626 5628 5629 5629 5629 5629 5627 5626 5626 5627 5625 5624 5622 5621 5619 5617 5616 5615 5613 5612 5611 5609 5607 5604 5602 5601 5600 5599 5598 5596 5594 5592 5590 5587 5585 5583
5608 5608 5608 5609 5614 5616 5616 5617 5618 5619 5620 5621 5622 5621 5620 5619 5619 5619 5618 5617 5615 5613 5611 5608 5607 5606 5605 5603 5602 5600 5598 5595 5594 5594 5593 5592 5590 5589 5587 5584 5583 5580 5577 5575
5601 5599 5601 5604 5609 5610 5611 5611 5611 5611 5613 5612 5612 5612 5612 5611 5611 5612 5611 5610 5607 5604 5602 5600 5598 5597 5596 5594 5592 5590 5588 5587 5586 5586 5585 5583 5582 5580 5578 5576 5573 5571 5569 5567
5598 5597 5597 5601 5607 5605 5607 5607 5605 5604 5604 5604 5604 5604 5604 5604 5604 5604 5604 5601 5599 5596 5594 5592 5590 5589 5588 5586 5583 5581 5579 5578 5577 5577 5576 5574 5572 5570 5569 5567 5564 5558 5557 5554